{"data":{"norad_id":63815,"intl_designator":"2025-092M","name":"STARLINK-34060","alt_names":[],"object_type":"PAYLOAD","status":"ACTIVE","operator":null,"country":"US","launch_date":"2025-05-04","launch_site_code":"AFETR","launch_vehicle":null,"mission":null,"orbit_class":"UNKNOWN","rcs_meters":null,"size_class":null,"mass_kg":null,"dimensions":null,"purposes":["comms"],"wikipedia_slug":null,"has_3d_model":false,"image_url":null,"decayed_at":null,"tle_current":{"epoch":"2026-05-25T03:56:56.103936Z","epoch_age_seconds":60849,"freshness":"FRESH","line1":"1 63815U 25092M   26145.16453824  .00016868  00000+0  62094-3 0  9994","line2":"2 63815  43.0001 100.3830 0001586 276.6025  83.4646 15.27587129 60257","mean_motion":15.27587129,"eccentricity":0.0001586,"inclination_deg":43.0001,"raan_deg":100.383,"arg_perigee_deg":276.6025,"mean_anomaly_deg":83.4646,"bstar":0.00062094,"rev_number":6025,"period_min":94.266308786109,"perigee_km":481.93956860278,"apogee_km":484.11593006127,"semimajor_km":6861.164749332,"source":"CELESTRAK","updated_at":"2026-05-25T13:38:20.141633Z"}}}